一网星座-0619星 (ONEWEB-0619)

导读 | 豆包AI

ONEWEB-0619是英国OneWeb公司的低轨互联网卫星,于北京时间2023年1月10日由SpaceX猎鹰9号火箭在卡纳维拉尔角发射升空,属于OneWeb全球卫星星座组网任务的星链卫星之一。该卫星重约148公斤,依靠太阳能电池板供电,计划运行在1200公里高度近地轨道,用于提供全球宽带互联网服务,助力OneWeb完成648颗卫星的初步组网目标。

Basic Information
目录编号:
55160
目录名称:
ONEWEB-0619
国际标识:
2023-004W
轨道中心:
EARTH
卫星名称:
一网星座-0619星
卫星全名:
一网星座-0619星 (ONEWEB-0619)
卫星状态:
在轨 (已飞行1208 天)
发射日期:
2023-01-10 UTC
国别 :
英国 (GB)
星等 :
--
Orbit Information
数据来源 国际轨道数据 AOE轨道数据
星历时间 2026-05-02T09:57:51+0800
9小时前
查看轨道信息
2026-04-26T23:00:00+0800
5天前
查看轨道信息
半长轴 7571.849km 7571.853km
偏心率 0.0002123 0.0002029
轨道倾角 87.919° 87.919°
近地点辐角 89.987° 96.326°
升交点赤经 15.007° 16.090°
平近点角 270.150° 313.885°
近地点 1192.104km 1192.179km
远地点 1195.32km 1195.253km
周期 109.286分钟 109.286分钟
每日圈数 13.176495 13.176485
Detailed Information
平衡模式:
三轴稳定
覆盖范围:
全球
运营商:
一网卫星公司
运营商所在国:
英国
制造商(研发单位):
一网卫星公司
制造商所在国:
英国
使用方式:
暂无
Satellite Introduction
OneWeb卫星网络由648颗重约125公斤的微型卫星组成,运行在1200公里的轨道上。 每颗卫星都能够提供至少每秒8千兆位的吞吐量,以使用其高吞吐量的Ku频段有效载荷为家庭和移动平台提供互联网接入。该卫星仍在工作。
2D Orbit Map
3D Orbit Map
Orbit Altitude Analysis Chart
Orbit Inclination Analysis Chart
Orbit Comprehensive Analysis Chart
View Comprehensive Chart